2015-12-14 00:02:58 r, 16.47m,0000000023Hz,0000020339c,0000000.044s, 017.4C,00002195
2015-12-14 00:12:56 r, 14.90m,0000000096Hz,0000004765c,0000000.010s, 017.4C,00002195
2015-12-14 00:22:57 r, 14.98m,0000000089Hz,0000005137c,0000000.011s, 017.4C,00002195
2015-12-14 00:32:56 r, 14.67m,0000000119Hz,0000003848c,0000000.008s, 017.4C,00002195
2015-12-14 00:42:56 r, 14.55m,0000000135Hz,0000000000c,0000000.000s, 017.7C,00002195
2015-12-14 00:52:56 r, 14.78m,0000000107Hz,0000004265c,0000000.009s, 017.7C,00002195
2015-12-14 01:02:59 r, 14.83m,0000000104Hz,0000004475c,0000000.010s, 018.0C,00002195
2015-12-14 01:12:56 r, 15.02m,0000000087Hz,0000005308c,0000000.012s, 018.0C,00002195
2015-12-14 01:22:56 r, 14.95m,0000000093Hz,0000004971c,0000000.011s, 018.3C,00002195
2015-12-14 01:32:57 r, 15.02m,0000000087Hz,0000005284c,0000000.011s, 018.3C,00002195
2015-12-14 01:42:56 r, 15.43m,0000000059Hz,0000007744c,0000000.017s, 018.3C,00002195
2015-12-14 01:52:56 r, 15.15m,0000000076Hz,0000005973c,0000000.013s, 018.3C,00002195
2015-12-14 02:02:56 r, 15.04m,0000000086Hz,0000005398c,0000000.012s, 018.3C,00002195
2015-12-14 02:12:56 r, 14.90m,0000000096Hz,0000004763c,0000000.010s, 018.3C,00002195
2015-12-14 02:22:56 r, 14.83m,0000000103Hz,0000004459c,0000000.010s, 018.0C,00002195
2015-12-14 02:32:56 r, 15.16m,0000000076Hz,0000006037c,0000000.013s, 018.0C,00002195
2015-12-14 02:42:56 r, 15.36m,0000000064Hz,0000007285c,0000000.016s, 018.0C,00002195
2015-12-14 02:52:56 r, 15.42m,0000000060Hz,0000007632c,0000000.017s, 018.0C,00002195
2015-12-14 03:02:56 r, 15.10m,0000000080Hz,0000005712c,0000000.012s, 018.0C,00002195
2015-12-14 03:12:56 r, 15.20m,0000000073Hz,0000006282c,0000000.014s, 018.0C,00002195
2015-12-14 03:22:56 r, 15.18m,0000000075Hz,0000006132c,0000000.013s, 018.0C,00002195
2015-12-14 03:32:59 r, 15.28m,0000000068Hz,0000006783c,0000000.015s, 018.0C,00002195
2015-12-14 03:42:56 r, 15.44m,0000000059Hz,0000007810c,0000000.017s, 018.0C,00002195
2015-12-14 03:52:57 r, 15.55m,0000000052Hz,0000008663c,0000000.019s, 018.0C,00002195
2015-12-14 04:02:56 r, 15.16m,0000000076Hz,0000006041c,0000000.013s, 017.7C,00002195
2015-12-14 04:12:58 r, 15.28m,0000000068Hz,0000006740c,0000000.015s, 017.7C,00002195
2015-12-14 04:22:56 r, 15.75m,0000000044Hz,0000010463c,0000000.023s, 017.7C,00002195
2015-12-14 04:32:57 r, 15.76m,0000000044Hz,0000010497c,0000000.023s, 017.7C,00002195
2015-12-14 04:42:57 r, 16.19m,0000000030Hz,0000015510c,0000000.034s, 017.4C,00002195
2015-12-14 04:52:59 r, 15.74m,0000000045Hz,0000010278c,0000000.022s, 017.4C,00002195
2015-12-14 05:02:56 r, 15.36m,0000000064Hz,0000007287c,0000000.016s, 017.4C,00002195
2015-12-14 05:12:56 r, 15.19m,0000000074Hz,0000006224c,0000000.014s, 017.4C,00002195
2015-12-14 05:22:57 r, 15.14m,0000000078Hz,0000005948c,0000000.013s, 017.4C,00002195
2015-12-14 05:32:59 r, 15.06m,0000000083Hz,0000005529c,0000000.012s, 017.4C,00002195
2015-12-14 05:42:56 r, 15.79m,0000000043Hz,0000010781c,0000000.023s, 017.4C,00002195
2015-12-14 05:52:56 r, 15.77m,0000000043Hz,0000010587c,0000000.023s, 017.4C,00002195
2015-12-14 06:02:59 r, 16.14m,0000000031Hz,0000014946c,0000000.032s, 017.4C,00002195
2015-12-14 06:12:56 r, 16.77m,0000000017Hz,0000026741c,0000000.058s, 017.4C,00002195
2015-12-14 06:22:57 r, 17.07m,0000000013Hz,0000035289c,0000000.077s, 017.0C,00002195
2015-12-14 06:32:56 r, 17.13m,0000000012Hz,0000036957c,0000000.080s, 016.7C,00002195
2015-12-14 06:42:56 r, 17.26m,0000000011Hz,0000041833c,0000000.091s, 016.4C,00002195
2015-12-14 06:52:56 r, 17.13m,0000000012Hz,0000037303c,0000000.081s, 016.4C,00002195
2015-12-14 07:02:58 r, 15.53m,0000000054Hz,0000008473c,0000000.018s, 016.4C,00002195
2015-12-14 07:12:57 r, 15.11m,0000000079Hz,0000005746c,0000000.012s, 016.4C,00002195
2015-12-14 07:22:58 r, 14.96m,0000000090Hz,0000005029c,0000000.011s, 016.4C,00002195
2015-12-14 07:32:57 r, 14.11m,0000000201Hz,0000000000c,0000000.000s, 016.4C,00002195
2015-12-14 07:42:56 r, 12.55m,0000000848Hz,0000000000c,0000000.000s, 016.7C,00002195
2015-12-14 07:52:56 r, 10.88m,0000003952Hz,0000000000c,0000000.000s, 016.7C,00002195
2015-12-14 08:02:56 r, 09.20m,0000018612Hz,0000000000c,0000000.000s, 016.7C,00002195
2015-12-14 08:12:58 r, 07.97m,0000057789Hz,0000000000c,0000000.000s, 016.7C,00002195
2015-12-14 08:22:57 r, 07.08m,0000131301Hz,0000000000c,0000000.000s, 016.4C,00002195
2015-12-14 08:32:57 r, 06.46m,0000231751Hz,0000000000c,0000000.000s, 016.4C,00002195
2015-12-14 08:42:57 r, 05.98m,0000361929Hz,0000000000c,0000000.000s, 016.4C,00002195
2015-12-14 08:52:56 r, 00.00m,0000551835Hz,0000000000c,0000000.000s, 016.1C,00002195
2015-12-14 09:02:58 r, 00.00m,0000562908Hz,0000000000c,0000000.000s, 016.4C,00002195
2015-12-14 09:12:57 r, 00.00m,0000562882Hz,0000000000c,0000000.000s, 016.4C,00002195
2015-12-14 09:22:56 r, 00.00m,0000562852Hz,0000000000c,0000000.000s, 016.4C,00002195
2015-12-14 09:32:58 r, 00.00m,0000562875Hz,0000000000c,0000000.000s, 016.4C,00002195
2015-12-14 09:42:57 r, 00.00m,0000562860Hz,0000000000c,0000000.000s, 016.1C,00002195
2015-12-14 09:52:57 r, 00.00m,0000562974Hz,0000000000c,0000000.000s, 016.4C,00002195
2015-12-14 10:02:59 r, 00.00m,0000562902Hz,0000000000c,0000000.000s, 016.4C,00002195
2015-12-14 10:12:56 r, 00.00m,0000562945Hz,0000000000c,0000000.000s, 016.4C,00002195
2015-12-14 10:22:56 r, 00.00m,0000562983Hz,0000000000c,0000000.000s, 016.4C,00002195
2015-12-14 10:32:57 r, 00.00m,0000563069Hz,0000000000c,0000000.000s, 016.7C,00002195
2015-12-14 10:42:57 r, 00.00m,0000562985Hz,0000000000c,0000000.000s, 016.7C,00002195
2015-12-14 10:52:57 r, 00.00m,0000563066Hz,0000000000c,0000000.000s, 017.0C,00002195
2015-12-14 11:02:59 r, 00.00m,0000563022Hz,0000000000c,0000000.000s, 017.4C,00002195
2015-12-14 11:12:57 r, 00.00m,0000563130Hz,0000000000c,0000000.000s, 017.7C,00002195
2015-12-14 11:22:57 r, 00.00m,0000563026Hz,0000000000c,0000000.000s, 017.4C,00002195
2015-12-14 11:32:56 r, 00.00m,0000563118Hz,0000000000c,0000000.000s, 017.4C,00002195
2015-12-14 11:42:59 r, 00.00m,0000563133Hz,0000000000c,0000000.000s, 017.4C,00002195
2015-12-14 11:52:57 r, 00.00m,0000563147Hz,0000000000c,0000000.000s, 017.7C,00002195
2015-12-14 12:02:57 r, 00.00m,0000563159Hz,0000000000c,0000000.000s, 017.7C,00002195
2015-12-14 12:12:57 r, 00.00m,0000563188Hz,0000000000c,0000000.000s, 017.7C,00002195
2015-12-14 12:22:57 r, 00.00m,0000563168Hz,0000000000c,0000000.000s, 017.7C,00002195
2015-12-14 12:32:59 r, 00.00m,0000563096Hz,0000000000c,0000000.000s, 017.7C,00002195
2015-12-14 12:42:57 r, 00.00m,0000563182Hz,0000000000c,0000000.000s, 018.0C,00002195
2015-12-14 12:52:58 r, 00.00m,0000563142Hz,0000000000c,0000000.000s, 018.0C,00002195
2015-12-14 13:02:57 r, 00.00m,0000563228Hz,0000000000c,0000000.000s, 018.3C,00002195
2015-12-14 13:12:57 r, 00.00m,0000563166Hz,0000000000c,0000000.000s, 018.3C,00002195
2015-12-14 13:22:57 r, 00.00m,0000563197Hz,0000000000c,0000000.000s, 018.0C,00002195
2015-12-14 13:32:58 r, 00.00m,0000563149Hz,0000000000c,0000000.000s, 018.0C,00002195
2015-12-14 13:42:57 r, 00.00m,0000563350Hz,0000000000c,0000000.000s, 018.3C,00002195
2015-12-14 13:52:57 r, 00.00m,0000563199Hz,0000000000c,0000000.000s, 018.0C,00002195
2015-12-14 14:02:57 r, 00.00m,0000563176Hz,0000000000c,0000000.000s, 018.0C,00002195
2015-12-14 14:12:57 r, 00.00m,0000563139Hz,0000000000c,0000000.000s, 018.0C,00002195
2015-12-14 14:22:57 r, 00.00m,0000563025Hz,0000000000c,0000000.000s, 017.7C,00002195
2015-12-14 14:32:57 r, 00.00m,0000563066Hz,0000000000c,0000000.000s, 017.7C,00002195
2015-12-14 14:42:57 r, 00.00m,0000563020Hz,0000000000c,0000000.000s, 017.4C,00002195
2015-12-14 14:52:57 r, 00.00m,0000562960Hz,0000000000c,0000000.000s, 017.4C,00002195
2015-12-14 15:02:57 r, 00.00m,0000562938Hz,0000000000c,0000000.000s, 017.4C,00002195
2015-12-14 15:12:57 r, 00.00m,0000563052Hz,0000000000c,0000000.000s, 017.4C,00002195
2015-12-14 15:22:57 r, 00.00m,0000563001Hz,0000000000c,0000000.000s, 017.0C,00002195
2015-12-14 15:32:57 r, 00.00m,0000563024Hz,0000000000c,0000000.000s, 017.0C,00002195
2015-12-14 15:42:58 r, 00.00m,0000562968Hz,0000000000c,0000000.000s, 016.7C,00002195
2015-12-14 15:52:57 r, 00.00m,0000562932Hz,0000000000c,0000000.000s, 016.7C,00002195
2015-12-14 16:02:57 r, 05.91m,0000385382Hz,0000000000c,0000000.000s, 016.4C,00002195
2015-12-14 16:12:57 r, 06.44m,0000236289Hz,0000000000c,0000000.000s, 016.1C,00002195
2015-12-14 16:22:57 r, 07.02m,0000138310Hz,0000000000c,0000000.000s, 016.1C,00002195
2015-12-14 16:32:57 r, 07.81m,0000067364Hz,0000000000c,0000000.000s, 016.1C,00002195
2015-12-14 16:42:59 r, 08.98m,0000022892Hz,0000000000c,0000000.000s, 015.7C,00002195
2015-12-14 16:52:57 r, 10.60m,0000005125Hz,0000000000c,0000000.000s, 015.7C,00002195
2015-12-14 17:02:57 r, 12.53m,0000000869Hz,0000000000c,0000000.000s, 015.4C,00002195
2015-12-14 17:12:57 r, 14.38m,0000000158Hz,0000000000c,0000000.000s, 015.4C,00002195
2015-12-14 17:22:57 r, 15.84m,0000000041Hz,0000011314c,0000000.025s, 015.4C,00002195
2015-12-14 17:32:57 r, 16.69m,0000000019Hz,0000024646c,0000000.053s, 015.4C,00002195
2015-12-14 17:42:57 r, 17.01m,0000000014Hz,0000033204c,0000000.072s, 015.4C,00002195
2015-12-14 17:52:57 r, 17.04m,0000000014Hz,0000033974c,0000000.074s, 015.4C,00002195
2015-12-14 18:02:57 r, 17.18m,0000000012Hz,0000038675c,0000000.084s, 015.4C,00002195
2015-12-14 18:12:58 r, 17.22m,0000000012Hz,0000040197c,0000000.087s, 015.4C,00002195
2015-12-14 18:22:57 r, 16.97m,0000000015Hz,0000031929c,0000000.069s, 015.4C,00002195
2015-12-14 18:32:57 r, 16.96m,0000000015Hz,0000031709c,0000000.069s, 015.4C,00002195
2015-12-14 18:42:59 r, 16.86m,0000000016Hz,0000028816c,0000000.063s, 015.1C,00002195
2015-12-14 18:52:57 r, 17.02m,0000000014Hz,0000033431c,0000000.073s, 015.1C,00002195
2015-12-14 19:02:57 r, 16.95m,0000000015Hz,0000031324c,0000000.068s, 015.1C,00002195
2015-12-14 19:12:59 r, 16.60m,0000000020Hz,0000022572c,0000000.049s, 015.1C,00002195
2015-12-14 19:22:57 r, 16.35m,0000000026Hz,0000017924c,0000000.039s, 015.1C,00002195
2015-12-14 19:32:57 r, 16.13m,0000000031Hz,0000014668c,0000000.032s, 015.1C,00002195
2015-12-14 19:42:57 r, 16.11m,0000000032Hz,0000014428c,0000000.031s, 015.1C,00002195
2015-12-14 19:52:57 r, 16.11m,0000000033Hz,0000014355c,0000000.031s, 015.1C,00002195
2015-12-14 20:02:57 r, 16.06m,0000000033Hz,0000013734c,0000000.030s, 015.1C,00002195
2015-12-14 20:12:57 r, 16.06m,0000000033Hz,0000013818c,0000000.030s, 015.1C,00002195
2015-12-14 20:22:57 r, 16.04m,0000000034Hz,0000013558c,0000000.029s, 015.1C,00002195
2015-12-14 20:32:57 r, 16.15m,0000000031Hz,0000014945c,0000000.032s, 015.1C,00002195
2015-12-14 20:42:57 r, 16.30m,0000000026Hz,0000017316c,0000000.038s, 014.8C,00002195
2015-12-14 20:52:57 r, 16.38m,0000000025Hz,0000018624c,0000000.040s, 014.8C,00002195
2015-12-14 21:02:57 r, 16.52m,0000000022Hz,0000021024c,0000000.046s, 014.8C,00002195
2015-12-14 21:12:57 r, 16.53m,0000000021Hz,0000021445c,0000000.047s, 014.8C,00002195
2015-12-14 21:22:57 r, 16.64m,0000000020Hz,0000023502c,0000000.051s, 014.8C,00002195
2015-12-14 21:32:57 r, 16.80m,0000000017Hz,0000027290c,0000000.059s, 014.8C,00002195
2015-12-14 21:42:58 r, 16.82m,0000000016Hz,0000027992c,0000000.061s, 014.5C,00002195
2015-12-14 21:52:57 r, 16.78m,0000000017Hz,0000026905c,0000000.058s, 014.5C,00002195
2015-12-14 22:02:57 r, 16.52m,0000000022Hz,0000021038c,0000000.046s, 014.5C,00002195
2015-12-14 22:12:57 r, 16.42m,0000000024Hz,0000019297c,0000000.042s, 014.5C,00002195
2015-12-14 22:22:57 r, 16.32m,0000000026Hz,0000017625c,0000000.038s, 014.5C,00002195
2015-12-14 22:32:57 r, 16.23m,0000000028Hz,0000016142c,0000000.035s, 014.5C,00002195
2015-12-14 22:42:58 r, 16.17m,0000000030Hz,0000015259c,0000000.033s, 014.1C,00002195
2015-12-14 22:52:57 r, 16.21m,0000000029Hz,0000015825c,0000000.034s, 014.1C,00002195
2015-12-14 23:02:57 r, 16.55m,0000000021Hz,0000021721c,0000000.047s, 014.1C,00002195
2015-12-14 23:12:59 r, 17.00m,0000000014Hz,0000033002c,0000000.072s, 014.1C,00002195
2015-12-14 23:22:57 r, 17.58m,0000000008Hz,0000055912c,0000000.121s, 014.1C,00002195
2015-12-14 23:32:57 r, 17.81m,0000000007Hz,0000069155c,0000000.150s, 013.8C,00002195
2015-12-14 23:42:59 r, 18.12m,0000000005Hz,0000092285c,0000000.200s, 013.8C,00002195
2015-12-14 23:52:57 r, 18.14m,0000000005Hz,0000093793c,0000000.204s, 013.5C,00002195
